Flag for U.S.A. Weather past 2 weeks in Jackson, Wyoming, U.S.A.

Now
46 °F

Partly cloudy.


Feels Like: 45 °F
Forecast: 42 / 56 °F
Wind: 3 mph from North

Location: Jackson Hole

Current Time: Aug 31, 2014 at 2:53:46 AM

Latest Report: Aug 31, 2014 at 2:15 AM


Visibility: 10 mi

Pressure: 29.99 "Hg

Humidity: 87%

Dew point: 43 °F

Location of JacksonLocation

Historic Weather in Jackson — Graph

°F

Jackson temperature yesterday

Maximum temperature yesterday: 72 °F (at 11:55 AM)
Minimum temperature yesterday: 45 °F (at 5:15 AM)
Average temperature yesterday: 52 °F

Past Weeks' High & Low Weather Summary

 TemperatureHumidityPressure
High82 °F (Aug 18, 5:52 PM)100% (Aug 16, 2:35 AM)30.34 "Hg (Aug 16, 2:35 AM)
Low34 °F (Aug 25, 5:55 AM)14% (Aug 18, 5:52 PM)29.96 "Hg (Aug 30, 12:51 PM)
Average52 °F77%30.17 "Hg
* Reported Aug 16 1:35 AM — Aug 31 1:35 AM, Jackson, Weather by CustomWeather, © 2014

Note: Actual official high and low records may vary slightly from our data, if they occured in-between our weather recording intervals... More about our weather records

Advertising

Jackson weather history for previous 24 hours

 ConditionsComfort  
Time TempWeatherWind HumidityBarometerVisibility
1:35 AM
Aug 31
48 °FPassing clouds.5 mph87%29.99 "Hg10 mi
1:15 AM48 °FMostly cloudy.5 mph94%29.98 "Hg10 mi
12:55 AM48 °FOvercast.7 mph94%30.01 "Hg10 mi
12:35 AM50 °FMostly cloudy.8 mph82%30.00 "Hg10 mi
11:55 PM
Aug 30
52 °FMostly cloudy.5 mph77%30.00 "Hg10 mi
11:35 PM50 °FOvercast.9 mph82%30.00 "Hg10 mi
11:15 PM50 °FPassing clouds.15 mph88%29.99 "Hg10 mi
10:55 PM50 °FClear.10 mph88%29.99 "Hg10 mi
10:35 PM48 °FClear.16 mph94%29.98 "Hg10 mi
10:15 PM48 °FClear.10 mph94%29.98 "Hg9 mi
9:55 PM50 °FClear.No wind88%29.99 "Hg10 mi
9:35 PM50 °FPassing clouds.3 mph88%29.99 "Hg10 mi
9:15 PM52 °FPassing clouds.7 mph82%29.98 "Hg10 mi
8:55 PM52 °FOvercast.9 mph82%29.99 "Hg10 mi
8:35 PM52 °FPartly sunny.6 mph82%29.99 "Hg10 mi
6:51 PM55 °FScattered clouds.No wind77%29.98 "Hg10 mi
5:51 PM61 °FOvercast.No wind55%29.98 "Hg10 mi
4:51 PM59 °FOvercast.No wind63%29.99 "Hg10 mi
4:00 PM61 °FOvercast.No wind59%30.01 "Hg10 mi
2:51 PM66 °FScattered clouds.20 mph46%29.97 "Hg10 mi
1:51 PM66 °FScattered clouds.16 mph49%29.96 "Hg10 mi
12:51 PM72 °FMostly cloudy.8 mph31%29.96 "Hg10 mi
11:55 AM72 °FSunny.5 mph31%29.97 "Hg10 mi
10:54 AM68 °FSunny.5 mph46%29.99 "Hg10 mi
9:55 AM61 °FSunny.6 mph55%30.00 "Hg10 mi
8:51 AM54 °FSunny.No wind72%30.02 "Hg10 mi
7:55 AM48 °FPassing clouds.No wind87%30.02 "Hg10 mi
6:51 AM45 °FScattered showers. Passing clouds.No wind93%30.03 "Hg10 mi
6:35 AM45 °FPassing clouds.No wind93%30.03 "Hg10 mi
5:55 AM46 °FPassing clouds.No wind87%30.04 "Hg10 mi
5:35 AM45 °FOvercast.No wind93%30.04 "Hg10 mi
5:15 AM45 °FPassing clouds.No wind93%30.04 "Hg10 mi
4:55 AM46 °FPassing clouds.5 mph87%30.05 "Hg10 mi
4:35 AM46 °FClear.No wind87%30.06 "Hg10 mi
4:15 AM48 °FPassing clouds.7 mph82%30.06 "Hg10 mi
3:55 AM48 °FPassing clouds.No wind82%30.07 "Hg10 mi
3:35 AM48 °FPassing clouds.8 mph82%30.07 "Hg10 mi
3:15 AM48 °FPassing clouds.9 mph82%30.08 "Hg10 mi
2:55 AM48 °FPassing clouds.3 mph87%30.08 "Hg10 mi
2:35 AM50 °FPassing clouds.6 mph82%30.08 "Hg10 mi
2:15 AM48 °FPassing clouds.5 mph87%30.09 "Hg10 mi
Weather by CustomWeather, © 2014

See weather overviewHow to use our weather pages